Location: Unspecified
(54.1780°N, 0.0000°E)
Time: 21:50:35
(UTC+00:00)

Vanguard 3 - All Passes

Search period start: 19 June 2019 00:00
Search period end: 29 June 2019 00:00
Orbit: 508 x 3263 km, 33.3° (Epoch: 19 June)

Date Brightness Start Highest point End Pass type
(mag) Time Alt. Az. Time Alt. Az. Time Alt. Az.
19 Jun - 13:44:27 10° SSW 13:45:47 11° S 13:47:02 10° S daylight
20 Jun - 12:29:06 10° SSW 12:32:20 12° S 12:35:05 10° SSE daylight
21 Jun - 11:14:50 10° S 11:18:36 12° SSE 11:21:48 10° SSE daylight
21 Jun - 13:25:54 10° SSW 13:29:36 13° S 13:32:37 10° SSE daylight
22 Jun - 10:02:17 10° S 10:04:37 11° SSE 10:06:45 10° SSE daylight
22 Jun - 12:10:28 10° SSW 12:16:03 16° S 12:20:21 10° SE daylight
22 Jun - 14:24:27 10° SW 14:26:37 11° SSW 14:28:33 10° S daylight
23 Jun - 10:55:35 10° SSW 11:02:11 16° S 11:07:17 10° SE daylight
23 Jun - 13:07:57 10° SW 13:13:19 16° S 13:17:25 10° SSE daylight
24 Jun - 09:41:34 10° S 09:48:02 14° SSE 09:53:17 10° SE daylight
24 Jun - 11:52:12 10° SW 11:59:40 19° S 12:05:06 10° SE daylight
24 Jun - 14:06:41 10° SW 14:10:20 13° SSW 14:13:20 10° S daylight
25 Jun - 08:29:40 10° SSE 08:33:41 11° SSE 08:37:17 10° SE daylight
25 Jun - 10:36:51 10° SSW 10:45:39 20° S 10:52:07 10° SE daylight
25 Jun - 12:50:06 10° SW 12:56:58 19° SSW 13:01:57 10° SSE daylight
26 Jun - 09:22:13 10° SSW 09:31:20 18° SSE 09:38:22 10° SE daylight
26 Jun - 11:34:02 10° SW 11:43:11 22° S 11:49:37 10° SE daylight
26 Jun - 13:49:04 10° SW 13:53:57 15° SSW 13:57:47 10° S daylight
27 Jun - 08:08:55 10° S 08:16:48 15° SSE 08:23:24 10° SE daylight
27 Jun - 10:18:20 10° SW 10:29:01 23° S 10:36:38 10° SE daylight
27 Jun - 12:32:16 10° WSW 12:40:30 21° SSW 12:46:20 10° SSE daylight
28 Jun - 06:59:36 10° SSE 07:02:14 10° SE 07:04:46 10° SE daylight
28 Jun - 09:03:17 10° SSW 09:14:31 22° SSE 09:22:57 10° ESE daylight
28 Jun - 11:15:54 10° SW 11:26:35 25° S 11:33:57 10° SE daylight
28 Jun - 13:31:28 10° WSW 13:37:28 16° SSW 13:42:03 10° S daylight
